RH
3 3 3 3 3 3 3 3 3 2 3 4 5 6 6 6 5 4 4 4 4 4 4 4 3 3 12 23 32 65 86 90 81 96 89 76 22 20 25 30 38 39 32 23 26
4 4 3 3 3 3 3 4 4 3 3 3 4 6 7 7 7 7 6 5 5 4 4 3 3 6 18 11 26 62 85 82 73 97 96 93 47 36 28 38 35 42 45 36 31
6 5 5 5 4 4 4 4 4 4 4 4 5 5 6 8 8 8 8 8 7 5 4 3 3 6 24 55 70 85 90 93 60 66 98 89 98 42 27 29 34 49 44 42 44
6 6 6 6 6 6 6 5 6 6 6 5 6 6 7 7 6 7 9 8 9 7 6 4 4 20 49 87 81 74 79 88 69 66 73 78 93 37 31 33 34 42 50 49 49
6 6 6 6 7 7 7 8 9 10 10 8 7 8 7 7 6 7 8 8 8 8 8 6 6 35 61 67 55 53 71 72 75 81 82 94 87 58 30 35 43 62 68 75 65
6 6 6 6 6 7 8 9 11 10 11 8 7 9 9 8 8 8 8 7 7 7 7 6 7 17 49 33 59 61 61 68 77 98 95 90 91 75 34 36 50 57 50 51 61
6 10 9 7 7 7 8 10 11 11 10 9 8 9 8 8 7 7 8 8 8 7 7 8 8 19 28 22 73 64 62 43 76 97 97 98 96 49 32 39 42 47 52 73 69
25 21 19 17 14 11 11 12 10 12 12 11 9 9 8 7 7 6 7 8 8 8 7 9 7 26 39 67 73 82 68 65 52 83 96 97 94 84 48 40 42 48 56 75 62
25 26 26 24 22 19 15 16 14 13 13 12 10 9 9 8 8 7 6 6 8 8 8 8 8 36 58 67 76 58 65 55 54 54 94 91 94 84 70 30 34 47 55 55 58
25 27 26 26 26 25 24 24 24 21 16 14 12 10 11 10 10 10 7 6 6 7 9 9 14 44 56 61 60 49 78 64 47 57 86 93 91 93 84 39 35 44 49 78 66
29 31 32 29 26 26 27 28 30 29 28 21 15 14 12 11 8 11 10 6 6 7 10 9 27 39 50 59 60 62 79 73 63 78 68 76 77 72 79 76 58 28 44 63 70
26 30 32 30 29 27 25 26 32 34 33 31 26 16 14 14 10 12 12 8 6 6 8 9 16 42 44 53 64 84 96 85 62 68 47 56 75 84 59 30 40 59 64 54 74
23 28 31 27 26 26 27 32 31 32 33 30 28 22 16 16 11 10 10 10 6 6 8 10 13 25 27 36 66 88 84 82 79 81 69 52 73 55 69 64 65 44 49 76 63
22 26 29 25 23 23 26 35 32 32 32 28 29 27 22 21 15 11 10 12 7 6 7 7 11 14 14 32 51 86 83 74 68 71 69 70 78 82 65 84 80 68 61 59 64
21 25 27 26 22 23 26 31 36 35 36 41 41 38 34 26 17 15 13 12 9 8 8 13 10 8 11 29 40 54 88 85 67 82 72 79 86 81 62 66 64 63 56 57 76
22 22 22 20 19 21 27 30 31 34 37 38 42 43 36 30 29 22 17 12 13 11 9 13 14 16 22 20 27 57 63 67 69 82 76 60 84 63 58 73 72 59 53 38 36
24 22 21 21 22 27 28 32 33 33 33 36 37 40 37 44 42 33 22 15 13 14 12 13 24 44 22 23 38 33 38 44 51 70 85 75 89 78 79 57 37 23 29 29 29
26 23 23 26 28 30 32 33 35 33 31 34 35 40 44 39 46 51 58 39 22 21 24 18 31 42 47 47 41 63 62 74 67 65 75 78 69 66 74 64 73 57 20 8 32
26 26 27 28 30 31 33 37 37 37 38 36 37 40 45 46 46 47 54 64 60 65 54 60 35 44 38 60 64 71 73 70 43 47 71 58 54 56 77 76 69 71 39 8 6
27 26 28 32 33 33 35 40 42 42 36 34 34 36 39 45 49 47 48 53 58 70 82 79 61 56 56 54 55 57 78 89 81 70 65 67 49 53 65 82 90 74 48 24 8
30 31 31 32 33 33 33 33 34 34 33 37 42 44 43 49 49 46 46 57 57 71 72 77 78 67 66 67 64 62 63 66 98 98 75 69 59 63 67 86 75 66 43 34 17
36 32 26 24 19 18 20 21 26 25 25 41 45 43 49 52 58 62 62 67 74 66 64 68 79 67 72 72 66 71 88 88 96 81 83 80 62 54 43 57 63 70 60 42 17
20 16 16 14 12 11 11 11 11 11 9 9 16 14 36 53 61 67 72 87 88 83 84 75 67 64 68 74 77 74 75 72 80 90 72 77 60 69 49 46 54 59 54 34 18
21 17 14 13 12 11 10 9 9 9 9 8 9 9 11 21 49 63 65 72 90 93 92 93 88 76 65 65 75 78 85 86 78 88 67 75 68 76 70 40 44 54 59 39 20
28 19 12 11 13 15 14 12 11 11 10 10 10 11 11 12 19 23 46 61 64 87 92 95 95 93 87 77 73 74 71 80 81 76 70 66 72 72 70 55 50 57 75 49 25
19 20 19 18 18 16 14 13 12 12 13 12 13 13 13 13 12 17 20 30 64 65 78 93 98 99 97 94 92 70 74 65 65 63 50 70 76 68 75 63 37 69 83 75 51
32 25 21 19 17 16 14 13 12 12 16 16 14 13 13 13 13 12 11 20 34 63 67 81 94 98 97 98 94 85 72 68 61 60 64 70 68 90 82 65 40 65 70 80 79
Wind_Speed
13 13 12 12 12 11 9 7 5 3 1 3 4 5 4 4 5 4 4 5 5 7 8 9 9 8 8 9 9 9 12 8 2 4 9 1 4 3 4 1 3 4 5 1 3
12 10 9 8 8 7 6 6 5 5 4 3 3 5 6 7 7 5 7 7 7 8 9 9 9 9 10 8 6 11 12 4 5 11 15 12 4 4 3 4 5 4 4 1 3
10 9 8 8 6 6 6 6 6 6 6 5 4 4 5 9 9 7 7 7 8 9 10 9 8 8 8 10 7 8 15 9 7 10 19 6 1 4 6 7 2 6 5 3 4
9 8 7 6 6 7 7 7 6 7 7 7 5 5 6 9 9 8 10 10 10 12 10 9 8 7 9 5 8 15 18 10 9 9 8 4 2 3 4 6 2 4 6 3 3
12 12 11 9 8 8 8 7 6 6 7 7 6 5 5 9 7 7 9 10 12 15 9 7 6 3 5 5 10 12 18 7 8 5 3 4 5 5 5 5 5 5 6 4 5
16 16 14 12 10 8 6 5 5 5 6 8 5 6 7 7 5 6 9 11 14 11 9 5 2 1 5 9 5 10 17 14 5 14 8 7 5 2 5 3 5 4 5 7 2
19 14 11 9 8 6 4 4 4 4 5 8 4 4 6 8 8 6 6 11 15 11 4 3 4 3 5 3 8 8 11 18 11 25 20 16 2 6 7 5 2 2 3 7 4
13 9 7 6 5 4 3 3 4 4 5 6 5 4 4 7 7 7 9 10 11 9 4 5 4 6 2 8 5 8 12 15 20 3 19 12 6 6 4 5 5 4 4 4 4
11 8 7 5 4 4 4 3 4 5 5 4 6 5 4 6 6 8 9 11 10 6 3 7 8 9 6 9 15 8 12 11 13 14 1 2 8 2 11 7 5 5 9 5 6
10 8 6 5 5 4 3 3 4 6 7 6 5 5 5 7 7 7 6 8 8 4 5 10 11 13 11 13 9 9 10 12 13 12 10 7 4 7 8 8 4 11 6 6 4
8 5 7 6 6 7 6 7 6 5 6 8 8 8 8 8 7 10 7 6 5 4 9 11 15 13 12 10 7 5 8 10 8 10 9 9 8 8 8 4 6 2 4 6 7
7 6 6 8 8 12 10 7 6 8 7 8 8 9 9 9 9 7 9 6 5 4 8 11 15 15 14 14 11 4 8 8 9 5 7 9 9 9 5 3 2 5 3 2 1
8 8 6 8 10 12 13 5 4 8 11 7 8 8 9 8 8 8 8 6 3 3 7 12 13 15 14 13 12 6 5 4 6 2 5 10 17 18 7 1 1 3 4 4 4
8 9 8 8 10 13 14 6 3 6 5 4 7 6 6 8 8 7 6 5 3 3 5 9 15 19 19 13 13 8 1 1 2 3 1 6 9 11 10 8 5 3 6 9 11
9 9 8 9 10 12 13 7 3 4 6 7 10 7 8 9 6 5 7 6 5 4 4 6 11 15 16 13 16 9 4 7 3 6 3 1 7 4 6 7 6 5 5 5 6
9 9 8 9 11 11 9 7 6 5 8 7 8 12 6 6 4 6 7 9 6 4 4 9 10 6 11 10 8 14 11 9 6 2 3 8 5 7 3 1 7 6 7 5 8
9 9 10 10 10 9 8 6 8 9 9 10 9 10 11 5 4 3 7 10 8 3 4 5 7 9 9 8 8 15 10 12 10 6 7 7 7 1 5 3 4 6 7 9 9
8 9 10 9 9 8 9 11 13 15 14 15 14 13 10 12 5 4 5 6 6 3 0 3 12 12 10 9 11 11 12 13 19 12 8 8 7 6 10 4 4 7 4 6 7
9 9 9 9 10 11 12 14 17 19 19 18 17 16 16 15 13 9 12 9 3 4 4 5 10 18 12 14 14 11 18 21 20 19 17 14 10 4 6 7 3 9 7 2 5
11 10 12 12 11 12 13 16 18 21 23 22 22 20 20 20 19 18 11 13 12 8 3 3 6 20 16 15 17 17 10 18 23 22 20 20 13 7 6 9 5 8 8 5 4
12 12 13 13 14 15 16 19 23 25 25 25 26 26 25 24 24 25 23 15 16 14 19 16 13 12 20 16 12 15 14 18 19 26 22 20 17 13 7 9 7 9 10 6 7
10 10 12 11 11 12 13 13 16 21 22 25 25 27 29 29 29 30 28 26 26 24 24 18 16 20 22 19 19 18 15 18 19 19 21 26 23 22 21 13 9 13 10 4 2
8 8 10 11 12 11 12 14 16 20 23 23 26 26 27 31 33 35 36 31 33 31 29 28 29 24 26 26 22 25 25 23 23 26 24 29 26 21 23 20 16 11 12 7 2
12 12 12 12 13 15 17 17 18 20 25 24 27 28 28 29 31 38 42 42 40 38 36 36 36 35 30 25 29 30 29 26 23 25 29 28 31 25 21 19 18 12 13 10 3
17 19 20 20 19 22 22 24 24 25 28 27 31 30 30 30 32 37 39 38 42 47 44 43 44 41 38 34 32 32 36 35 33 31 28 30 26 27 28 23 16 16 10 11 4
18 21 24 26 27 28 27 26 27 26 30 33 32 32 32 34 33 33 32 34 39 42 50 50 47 46 42 42 41 37 38 38 42 39 36 29 27 30 32 36 25 15 11 9 7
19 21 25 26 28 31 33 34 35 33 33 32 33 33 36 38 38 35 34 33 33 36 43 54 55 53 49 44 44 45 40 38 40 41 37 36 34 37 38 38 24 20 20 11 13
Wind_Direction
62 59 59 62 64 63 62 62 55 37 339 259 234 228 228 235 246 255 260 266 271 274 278 276 279 284 271 264 280 322 307 248 262 324 175 354 112 211 271 59 79 72 46 47 149
51 48 45 45 46 45 38 29 21 19 8 350 285 252 239 243 250 266 265 278 280 279 275 289 306 321 325 304 278 315 325 229 241 223 274 244 25 315 190 122 69 54 53 61 130
35 28 22 21 21 14 4 352 340 334 327 318 300 281 265 255 256 259 276 281 287 280 285 297 328 350 8 4 320 318 320 291 264 246 248 249 307 306 175 93 93 99 76 114 128
18 10 357 346 346 343 336 328 325 322 313 300 287 271 251 258 264 265 258 264 272 276 291 311 341 2 7 360 8 333 315 301 266 241 216 155 228 211 259 130 99 72 88 76 98
345 337 328 318 315 317 316 317 327 344 344 319 277 252 246 251 265 257 258 257 265 271 292 327 346 339 12 341 325 12 354 311 244 256 224 201 194 234 84 108 99 85 102 89 120
328 320 313 309 306 307 308 306 314 324 334 330 278 253 246 260 265 261 259 253 254 266 284 358 49 352 317 346 48 27 13 3 282 224 208 241 274 197 101 81 115 119 115 77 59
321 315 312 311 311 309 307 305 312 317 325 338 301 272 256 269 266 264 268 262 261 261 279 81 176 88 313 343 84 49 14 2 346 218 197 226 210 137 121 108 167 132 40 59 129
349 345 331 321 316 305 301 306 306 306 323 339 326 286 277 270 273 269 268 275 276 277 258 180 185 114 199 90 113 62 26 11 16 352 228 216 226 141 153 150 158 142 127 169 59
356 4 5 344 323 306 301 299 303 294 298 315 335 303 291 285 294 288 287 273 281 297 229 200 192 151 119 113 112 80 43 26 15 26 358 231 228 207 177 184 161 184 145 143 133
340 344 332 330 348 350 340 333 315 299 292 292 302 305 302 279 289 294 297 285 280 276 189 187 158 159 145 138 120 94 79 41 33 42 23 37 210 203 217 187 180 223 144 162 125
342 343 345 347 345 344 348 2 356 338 313 291 288 287 288 305 285 290 290 312 281 241 173 186 173 172 164 153 138 101 92 76 38 58 60 41 50 218 214 180 240 19 168 152 155
324 320 326 342 342 337 322 340 346 334 347 297 290 283 285 304 307 282 293 296 270 251 178 189 190 187 191 170 154 122 87 91 66 56 42 33 55 95 93 113 131 173 181 249 151
310 306 307 332 333 336 350 337 293 327 341 320 286 270 279 285 295 281 259 278 279 260 170 196 198 205 202 185 159 142 115 51 54 76 57 90 78 65 102 64 136 143 155 211 241
290 293 288 317 319 325 336 347 265 309 324 307 296 301 289 293 297 289 272 283 259 246 235 221 205 217 230 204 181 156 161 74 184 187 344 117 83 70 68 128 145 167 190 208 219
279 291 277 300 311 321 330 323 282 298 328 305 301 300 295 277 292 290 306 278 245 249 299 270 271 248 249 203 194 183 196 259 219 208 259 289 42 18 100 144 179 189 186 182 187
282 284 279 287 306 310 317 307 298 271 279 265 264 269 263 245 287 303 287 271 260 247 211 251 275 235 238 234 178 207 214 239 252 217 252 221 8 118 18 356 180 236 192 167 144
290 282 282 291 302 305 305 288 276 272 292 290 283 269 259 243 211 213 277 274 259 207 227 233 206 190 188 199 224 229 228 242 250 232 272 254 191 18 198 286 293 280 246 254 216
289 282 282 289 299 297 284 275 274 279 286 294 298 298 280 271 255 183 184 260 258 213 47 216 187 181 169 144 163 204 236 255 272 265 243 247 216 323 201 165 347 325 321 246 175
285 287 290 290 287 281 273 268 273 280 280 282 285 286 285 275 271 245 195 178 142 67 53 23 195 218 226 179 196 227 234 238 245 258 262 248 244 152 184 202 346 299 330 340 231
286 283 280 278 277 275 271 265 266 269 277 281 284 283 279 284 273 268 241 225 195 163 235 251 227 233 228 224 215 213 213 230 241 251 264 266 270 262 230 200 300 278 307 313 255
287 289 285 278 277 275 271 272 277 281 287 289 290 286 281 280 279 281 280 260 245 229 218 212 225 191 229 233 224 218 229 233 240 248 256 253 260 271 260 261 242 257 272 267 231
295 293 295 295 294 290 286 273 269 275 280 279 276 277 276 274 273 275 273 267 265 261 256 246 233 210 210 224 234 219 223 226 241 249 257 251 246 260 274 283 297 245 315 276 240
300 297 298 301 301 297 286 281 279 277 275 274 269 272 268 268 268 265 265 259 260 254 262 262 257 248 217 218 227 235 233 227 246 253 247 249 251 255 265 261 288 287 307 307 165
306 302 295 291 292 293 288 287 288 285 282 288 287 284 280 262 256 260 261 254 251 247 247 257 260 257 257 241 233 242 245 248 250 253 251 249 251 251 262 264 275 288 294 289 272
307 305 303 301 299 296 291 291 292 288 286 286 284 279 278 279 271 261 255 250 251 246 244 248 254 257 260 251 251 244 241 246 254 263 267 257 255 262 261 263 254 273 285 262 259
308 304 302 304 304 304 302 297 289 283 280 280 271 270 271 265 259 262 263 256 246 251 246 242 248 252 252 252 254 250 242 245 245 253 261 260 269 270 264 267 267 251 257 269 270
306 308 308 308 309 307 304 300 297 294 288 283 278 274 271 271 273 269 259 252 249 248 249 245 243 249 253 253 256 255 255 250 249 250 256 265 275 267 259 263 263 272 266 268 280